CDT,Max TemperatureF,Mean TemperatureF,Min TemperatureF,Max Dew PointF,MeanDew PointF,Min DewpointF,Max Humidity, Mean Humidity, Min Humidity, Max Sea Level PressureIn, Mean Sea Level PressureIn, Min Sea Level PressureIn, Max VisibilityMiles, Mean VisibilityMiles, Min VisibilityMiles, Max Wind SpeedMPH, Mean Wind SpeedMPH, Max Gust SpeedMPH,PrecipitationIn, CloudCover, Events, WindDirDegrees
2013-3-1,27,26,25,22,20,18,86,79,74,30.21,30.13,30.04,10,8,2,20,15,24,T,8,Snow,349
2013-3-2,30,21,12,19,16,8,81,71,56,30.22,30.19,30.15,10,10,9,17,10,21,T,5,Snow,337
2013-3-3,31,20,8,12,8,4,84,65,40,30.18,30.14,30.10,10,10,10,12,3,14,0.00,0,,318
2013-3-4,33,23,12,24,18,10,84,70,54,30.14,30.07,30.00,10,10,9,13,7,,0.00,5,,87
2013-3-5,33,31,29,30,28,25,100,92,79,30.00,29.87,29.79,10,2,0,22,12,28,0.23,8,Fog-Snow,40
2013-3-6,32,30,27,27,25,23,86,81,75,30.32,30.22,29.98,10,9,3,21,13,29,0.00,8,,323
2013-3-7,37,29,20,24,22,19,84,72,57,30.43,30.39,30.32,10,10,10,10,4,13,0.00,5,,301
2013-3-8,37,25,13,26,20,10,96,76,62,30.50,30.43,30.31,10,8,2,15,6,18,0.00,0,,154
2013-3-9,43,37,30,33,29,23,85,74,65,30.31,30.07,29.84,10,9,5,20,11,28,0.02,5,Rain,156
2013-3-10,48,43,38,46,42,34,100,95,76,29.86,29.72,29.60,9,3,0,21,9,29,0.79,8,Fog-Rain,157
2013-3-11,46,39,32,45,36,28,100,95,81,29.80,29.63,29.55,10,4,0,21,10,24,0.04,8,Fog-Rain,237
2013-3-12,37,31,25,30,26,19,93,82,67,30.04,29.91,29.81,10,7,1,26,16,36,T,7,Snow,263
2013-3-13,33,28,22,19,16,12,80,65,44,30.34,30.23,30.04,10,10,9,25,13,33,T,2,,302
2013-3-14,34,27,19,30,25,16,92,80,54,30.34,30.22,30.10,10,8,2,14,6,17,T,6,Snow,195
2013-3-15,39,33,27,38,33,26,100,92,79,30.09,29.89,29.76,7,4,2,16,6,20,0.08,5,Rain,99
2013-3-16,34,32,30,34,28,21,100,87,69,30.14,29.92,29.71,10,7,0,17,10,22,T,8,Fog,4
2013-3-17,36,29,22,23,20,15,72,67,59,30.22,30.14,30.00,10,10,10,18,10,23,0.00,4,,44
2013-3-18,34,27,20,32,26,12,96,85,64,29.98,29.71,29.60,10,5,1,32,13,41,0.04,8,Rain-Snow,198
2013-3-19,32,24,16,16,13,8,74,64,52,30.11,29.97,29.79,10,10,9,31,21,40,T,4,Snow,268
2013-3-20,24,19,13,12,8,2,81,63,51,30.13,30.08,30.04,10,9,2,23,15,37,T,4,Snow,297
2013-3-21,33,23,12,15,10,4,74,62,45,30.08,30.05,30.02,10,10,10,14,8,21,0.00,0,,307
2013-3-22,40,28,15,19,14,11,84,61,38,30.09,30.06,30.02,10,10,10,12,4,16,0.00,0,,312
2013-3-23,44,32,20,24,20,16,88,64,35,30.14,30.08,30.03,10,10,7,17,6,21,0.00,2,,43
2013-3-24,37,34,31,29,26,23,93,76,60,30.03,29.80,29.66,10,8,2,30,16,38,T,8,Snow,30
2013-3-25,39,34,29,28,25,23,80,73,65,30.09,29.88,29.70,10,9,6,23,14,29,T,8,Snow,349
2013-3-26,43,35,27,27,24,20,81,65,43,30.27,30.19,30.10,10,10,10,16,9,24,0.00,7,,308
2013-3-27,42,34,25,26,23,20,79,62,43,30.33,30.31,30.27,10,10,10,14,6,16,0.00,7,,296
2013-3-28,50,36,22,25,22,19,84,57,34,30.36,30.33,30.29,10,10,10,14,3,18,0.00,1,,303
2013-3-29,55,41,26,27,23,18,85,53,27,30.33,30.29,30.24,10,10,10,13,3,16,0.00,2,,347
2013-3-30,59,42,25,41,31,22,85,63,39,30.25,30.06,29.84,10,9,7,23,10,28,0.01,3,Rain,186
2013-3-31,59,46,33,43,37,26,96,77,44,29.90,29.79,29.73,10,7,2,28,14,36,T,5,Rain,273